Delta Junction, AK

12:13 AM AKDT on September 26, 2016 (GMT -0800)
Allen Army Air Field

Weather History for PABI - October, 2013

Change the Weather History Date:

Tuesday, October 8, 2013

  Actual Average Record
Temperature  
Mean Temperature 37 °F -  
Max Temperature 44 °F 34 °F 53 °F (2003)
Min Temperature 30 °F 20 °F 5 °F (1998)
Degree Days  
Heating Degree Days 28    
Moisture  
Dew Point 30 °F    
Average Humidity 74    
Maximum Humidity 92    
Minimum Humidity 57    
Precipitation  
Precipitation 0.00 in - - ()
Sea Level Pressure  
Sea Level Pressure 29.32 in    
Wind  
Wind Speed 16 mph (ESE)    
Max Wind Speed 26 mph    
Max Gust Speed 39 mph    
Visibility 10 miles    
Events      
Averages and records for this station are not official NWS values.
T = Trace of Precipitation, MM = Missing Value Source: NWS Daily Summary

Daily Weather History Graph

Daily Weather History Graph

Search for Another Location

Airport or City:

Trip Planner

Search our weather history database for the weather conditions in past years. The results will help you decide how hot, cold, wet, or windy it might be!

Date:

Astronomy

Oct. 08, 2013 Rise Set
Actual Time 8:13 AM AKDT 6:45 PM AKDT
Civil Twilight 7:25 AM AKDT 7:33 PM AKDT
Nautical Twilight 6:30 AM AKDT 8:28 PM AKDT
Astronomical Twilight 5:32 AM AKDT 9:25 PM AKDT
Moon 1:46 PM AKDT (10/8) 8:00 PM AKDT (10/8)
Length of Visible Light 12h 07m
Length of Day
10h 32m
Waxing Crescent, 17% of the Moon is Illuminated
Oct 8
Waxing Crescent
Oct 11
First Quarter
Oct 18
Full
Oct 26
Last Quarter
Nov 3
New

Hourly Weather History & Observations

Time (AKDT) Temp. Windchill Dew Point Humidity Pressure Visibility Wind Dir Wind Speed Gust Speed Precip Events Conditions
12:53 AM 30.9 °F 22.2 °F 28.9 °F 92% 29.78 in 10.0 mi ESE 10.4 mph - N/A   Clear
1:53 AM 33.1 °F 22.6 °F 28.9 °F 85% 29.73 in 10.0 mi ESE 16.1 mph - N/A   Clear
2:53 AM 33.1 °F 21.5 °F 28.9 °F 85% 29.67 in 10.0 mi ESE 19.6 mph - N/A   Clear
3:53 AM 33.1 °F 19.8 °F 28.9 °F 85% 29.60 in 10.0 mi East 26.5 mph 33.4 mph N/A   Clear
4:53 AM 34.0 °F 22.7 °F 28.0 °F 79% 29.57 in 10.0 mi ESE 19.6 mph 29.9 mph N/A   Mostly Cloudy
5:53 AM 35.1 °F 22.7 °F 28.0 °F 76% 29.52 in 10.0 mi ESE 25.3 mph 32.2 mph N/A   Mostly Cloudy
6:53 AM 36.0 °F 25.6 °F 28.0 °F 73% 29.48 in 10.0 mi ESE 18.4 mph 27.6 mph N/A   Partly Cloudy
7:53 AM 36.0 °F 27.1 °F 28.9 °F 76% 29.44 in 10.0 mi SE 13.8 mph - N/A   Overcast
8:53 AM 37.9 °F 27.6 °F 28.0 °F 68% 29.41 in 10.0 mi ESE 20.7 mph 29.9 mph N/A   Overcast
9:53 AM 39.0 °F 29.9 °F 28.9 °F 67% 29.40 in 10.0 mi ESE 17.3 mph 29.9 mph N/A   Overcast
10:53 AM 37.9 °F 29.2 °F 28.9 °F 70% 29.37 in 10.0 mi ESE 15.0 mph 34.5 mph N/A   Overcast
11:53 AM 44.1 °F 36.2 °F 30.0 °F 58% 29.34 in 10.0 mi SSE 18.4 mph 39.1 mph N/A   Overcast
12:53 PM 39.9 °F 32.9 °F 30.0 °F 68% 29.32 in 10.0 mi ESE 11.5 mph - N/A   Overcast
1:53 PM 42.1 °F - 30.9 °F 65% 29.28 in 10.0 mi Calm Calm - N/A   Overcast
2:53 PM 41.0 °F 35.2 °F 30.9 °F 67% 29.23 in 10.0 mi ESE 9.2 mph - N/A   Overcast
3:53 PM 39.9 °F 31.4 °F 30.0 °F 68% 29.19 in 10.0 mi East 16.1 mph - N/A   Overcast
4:53 PM 39.9 °F 31.4 °F 30.9 °F 70% 29.15 in 10.0 mi ESE 16.1 mph - N/A   Overcast
5:53 PM 39.0 °F 31.8 °F 30.9 °F 73% 29.11 in 10.0 mi ESE 11.5 mph - N/A   Overcast
6:53 PM 37.0 °F 26.4 °F 30.9 °F 79% 29.08 in 10.0 mi ESE 20.7 mph - N/A   Mostly Cloudy
7:53 PM 36.0 °F 26.0 °F 30.9 °F 82% 29.06 in 10.0 mi East 17.3 mph 23.0 mph N/A   Mostly Cloudy
8:53 PM 36.0 °F 26.3 °F 30.9 °F 82% 29.04 in 10.0 mi ESE 16.1 mph - N/A   Mostly Cloudy
9:53 PM 36.0 °F 26.7 °F 30.9 °F 82% 29.02 in 10.0 mi East 15.0 mph - N/A   Overcast
10:53 PM 36.0 °F 27.1 °F 30.0 °F 79% 29.02 in 10.0 mi ESE 13.8 mph - N/A   Overcast
11:53 PM 36.0 °F 29.6 °F 30.0 °F 79% 29.01 in 10.0 mi SE 8.1 mph - N/A   Overcast